Flag for Canada Weather past 2 weeks in Greater Sudbury, Ontario, Canada

Now
66 °F

Passing clouds.


Feels Like: 66 °F
Forecast: 59 / 81 °F
Wind: 10 mph from Northeast

Location: Sudbury

Current Time: Sep 3, 2015 at 10:11:09 PM

Latest Report: Sep 3, 2015 at 9:00 PM


Visibility: 15 mi

Pressure: 30.04 "Hg

Humidity: 68%

Dew point: 55 °F

Location of Greater SudburyLocation

Historic Weather in Greater Sudbury — Graph

°F

Greater Sudbury temperature yesterday

Maximum temperature yesterday: 81 °F (at 5:00 PM)
Minimum temperature yesterday: 64 °F (at 3:00 AM)
Average temperature yesterday: 70 °F

Past Weeks' High & Low Weather Summary

 TemperatureHumidityPressure
High81 °F (Sep 2, 5:00 PM)100% (Aug 20, 7:51 AM)30.18 "Hg (Aug 20, 7:51 AM)
Low45 °F (Aug 27, 4:00 AM)46% (Aug 23, 7:00 PM)29.57 "Hg (Aug 20, 7:51 AM)
Average63 °F84%29.96 "Hg
* Reported Aug 19 8:00 PM — Sep 3 8:00 PM, Greater Sudbury, Weather by CustomWeather, © 2015

Note: Actual official high and low records may vary slightly from our data, if they occured in-between our weather recording intervals... More about our weather records

Advertising

Greater Sudbury weather history for previous 24 hours

 ConditionsComfort  
Time TempWeatherWind HumidityBarometerVisibility
8:00 PM
Thu, Sep 3
68 °FPartly sunny.7 mph64%30.03 "Hg20 mi
7:00 PM73 °FPartly sunny.8 mph57%30.01 "Hg20 mi
6:00 PM77 °FScattered clouds.10 mph51%29.99 "Hg20 mi
5:00 PM79 °FScattered clouds.9 mph48%30.00 "Hg20 mi
4:00 PM79 °FPartly sunny.13 mph48%30.02 "Hg20 mi
3:00 PM79 °FPartly sunny.9 mph51%30.02 "Hg20 mi
2:00 PM77 °FPartly sunny.12 mph57%30.02 "Hg20 mi
1:00 PM77 °FPartly sunny.14 mph57%30.02 "Hg20 mi
12:00 PM73 °FBroken clouds.9 mph74%30.03 "Hg20 mi
11:00 AM70 °FPartly sunny.12 mph78%30.03 "Hg20 mi
10:00 AM66 °FMore clouds than sun.12 mph83%30.04 "Hg20 mi
9:00 AM64 °FMore clouds than sun.14 mph88%30.03 "Hg20 mi
8:00 AM64 °FOvercast.12 mph88%30.02 "Hg20 mi
7:00 AM64 °FPassing clouds.14 mph88%30.00 "Hg20 mi
6:00 AM64 °FPassing clouds.13 mph88%29.99 "Hg15 mi
5:00 AM64 °FOvercast.10 mph88%29.98 "Hg10 mi
4:00 AM64 °FOvercast.7 mph83%29.98 "Hg10 mi
3:00 AM66 °FOvercast.8 mph83%29.97 "Hg10 mi
2:00 AM66 °FOvercast.6 mph83%29.97 "Hg10 mi
1:00 AM66 °FOvercast.6 mph78%29.97 "Hg10 mi
12:00 AM68 °FPassing clouds.7 mph78%29.97 "Hg10 mi
11:00 PM
Wed, Sep 2
68 °FPassing clouds.6 mph83%29.97 "Hg15 mi
10:00 PM70 °FPassing clouds.7 mph83%29.97 "Hg15 mi
Weather by CustomWeather, © 2015

See weather overviewHow to use our weather pages